Year,Month,Day,Hour,Minute,Value (Times are PST for temperature in C)
2013,08,21,00,00,15.00
2013,08,21,00,01,15.10
2013,08,21,00,02,15.10
2013,08,21,00,03,15.20
2013,08,21,00,04,15.20
2013,08,21,00,05,15.30
2013,08,21,00,06,15.40
2013,08,21,00,07,15.40
2013,08,21,00,08,15.40
2013,08,21,00,09,15.50
2013,08,21,00,10,15.60
2013,08,21,00,11,15.60
2013,08,21,00,12,15.70
2013,08,21,00,13,15.70
2013,08,21,00,14,15.70
2013,08,21,00,15,15.80
2013,08,21,00,16,15.80
2013,08,21,00,17,15.80
2013,08,21,00,18,15.80
2013,08,21,00,19,15.80
2013,08,21,00,20,15.80
2013,08,21,00,21,15.90
2013,08,21,00,22,15.90
2013,08,21,00,23,15.90
2013,08,21,00,24,15.90
2013,08,21,00,25,15.90
2013,08,21,00,26,15.90
2013,08,21,00,27,15.90
2013,08,21,00,28,15.90
2013,08,21,00,29,15.80
2013,08,21,00,30,15.80
2013,08,21,00,31,15.80
2013,08,21,00,32,15.80
2013,08,21,00,33,15.70
2013,08,21,00,34,15.70
2013,08,21,00,35,15.70
2013,08,21,00,36,15.70
2013,08,21,00,37,15.70
2013,08,21,00,38,15.70
2013,08,21,00,39,15.60
2013,08,21,00,40,15.60
2013,08,21,00,41,15.60
2013,08,21,00,42,15.70
2013,08,21,00,43,15.70
2013,08,21,00,44,15.70
2013,08,21,00,45,15.70
2013,08,21,00,46,15.70
2013,08,21,00,47,15.70
2013,08,21,00,48,15.70
2013,08,21,00,49,15.70
2013,08,21,00,50,15.70
2013,08,21,00,51,15.70
2013,08,21,00,52,15.70
2013,08,21,00,53,15.70
2013,08,21,00,54,15.60
2013,08,21,00,55,15.60
2013,08,21,00,56,15.60
2013,08,21,00,57,15.60
2013,08,21,00,58,15.60
2013,08,21,00,59,15.50
2013,08,21,01,00,15.50
2013,08,21,01,01,15.40
2013,08,21,01,02,15.40
2013,08,21,01,03,15.40
2013,08,21,01,04,15.40
2013,08,21,01,05,15.30
2013,08,21,01,06,15.30
2013,08,21,01,07,15.30
2013,08,21,01,08,15.30
2013,08,21,01,09,15.30
2013,08,21,01,10,15.30
2013,08,21,01,11,15.30
2013,08,21,01,12,15.30
2013,08,21,01,13,15.30
2013,08,21,01,14,15.30
2013,08,21,01,15,15.30
2013,08,21,01,16,15.30
2013,08,21,01,17,15.40
2013,08,21,01,18,15.40
2013,08,21,01,19,15.40
2013,08,21,01,20,15.40
2013,08,21,01,21,15.40
2013,08,21,01,22,15.40
2013,08,21,01,23,15.40
2013,08,21,01,24,15.40
2013,08,21,01,25,15.40
2013,08,21,01,26,15.40
2013,08,21,01,27,15.40
2013,08,21,01,28,15.40
2013,08,21,01,29,15.40
2013,08,21,01,30,15.40
2013,08,21,01,31,15.40
2013,08,21,01,32,15.40
2013,08,21,01,33,15.40
2013,08,21,01,34,15.40
2013,08,21,01,35,15.40
2013,08,21,01,36,15.40
2013,08,21,01,37,15.40
2013,08,21,01,38,15.50
2013,08,21,01,39,15.50
2013,08,21,01,40,15.50
2013,08,21,01,41,15.60
2013,08,21,01,42,15.60
2013,08,21,01,43,15.60
2013,08,21,01,44,15.70
2013,08,21,01,45,15.70
2013,08,21,01,46,15.70
2013,08,21,01,47,15.80
2013,08,21,01,48,15.80
2013,08,21,01,49,15.80
2013,08,21,01,50,15.90
2013,08,21,01,51,15.90
2013,08,21,01,52,15.90
2013,08,21,01,53,15.90
2013,08,21,01,54,15.90
2013,08,21,01,55,15.90
2013,08,21,01,56,15.90
2013,08,21,01,57,15.90
2013,08,21,01,58,15.90
2013,08,21,01,59,15.80
2013,08,21,02,00,15.80
2013,08,21,02,01,15.80
2013,08,21,02,02,15.80
2013,08,21,02,03,15.80
2013,08,21,02,04,15.70
2013,08,21,02,05,15.70
2013,08,21,02,06,15.70
2013,08,21,02,07,15.70
2013,08,21,02,08,15.70
2013,08,21,02,09,15.70
2013,08,21,02,10,15.70
2013,08,21,02,11,15.60
2013,08,21,02,12,15.60
2013,08,21,02,13,15.60
2013,08,21,02,14,15.60
2013,08,21,02,15,15.60
2013,08,21,02,16,15.60
2013,08,21,02,17,15.60
2013,08,21,02,18,15.60
2013,08,21,02,19,15.60
2013,08,21,02,20,15.60
2013,08,21,02,21,15.60
2013,08,21,02,22,15.70
2013,08,21,02,23,15.70
2013,08,21,02,24,15.70
2013,08,21,02,25,15.70
2013,08,21,02,26,15.70
2013,08,21,02,27,15.80
2013,08,21,02,28,15.80
2013,08,21,02,29,15.80
2013,08,21,02,30,15.80
2013,08,21,02,31,15.80
2013,08,21,02,32,15.90
2013,08,21,02,33,15.90
2013,08,21,02,34,15.90
2013,08,21,02,35,15.90
2013,08,21,02,36,16.00
2013,08,21,02,37,16.00
2013,08,21,02,38,16.00
2013,08,21,02,39,16.00
2013,08,21,02,40,16.00
2013,08,21,02,41,16.10
2013,08,21,02,42,16.10
2013,08,21,02,43,16.10
2013,08,21,02,44,16.10
2013,08,21,02,45,16.10
2013,08,21,02,46,16.10
2013,08,21,02,47,16.10
2013,08,21,02,48,16.10
2013,08,21,02,49,16.10
2013,08,21,02,50,16.10
2013,08,21,02,51,16.10
2013,08,21,02,52,16.10
2013,08,21,02,53,16.10
2013,08,21,02,54,16.10
2013,08,21,02,55,16.10
2013,08,21,02,56,16.10
2013,08,21,02,57,16.10
2013,08,21,02,58,16.10
2013,08,21,02,59,16.10
2013,08,21,03,00,16.20
2013,08,21,03,01,16.20
2013,08,21,03,02,16.20
2013,08,21,03,03,16.20
2013,08,21,03,04,16.20
2013,08,21,03,05,16.20
2013,08,21,03,06,16.30
2013,08,21,03,07,16.30
2013,08,21,03,08,16.20
2013,08,21,03,09,16.30
2013,08,21,03,10,16.30
2013,08,21,03,11,16.30
2013,08,21,03,12,16.30
2013,08,21,03,13,16.30
2013,08,21,03,14,16.30
2013,08,21,03,15,16.30
2013,08,21,03,16,16.30
2013,08,21,03,17,16.30
2013,08,21,03,18,16.30
2013,08,21,03,19,16.30
2013,08,21,03,20,16.30
2013,08,21,03,21,16.40
2013,08,21,03,22,16.40
2013,08,21,03,23,16.40
2013,08,21,03,24,16.40
2013,08,21,03,25,16.40
2013,08,21,03,26,16.40
2013,08,21,03,27,16.40
2013,08,21,03,28,16.40
2013,08,21,03,29,16.40
2013,08,21,03,30,16.40
2013,08,21,03,31,16.40
2013,08,21,03,32,16.40
2013,08,21,03,33,16.40
2013,08,21,03,34,16.40
2013,08,21,03,35,16.50
2013,08,21,03,36,16.40
2013,08,21,03,37,16.40
2013,08,21,03,38,16.40
2013,08,21,03,39,16.40
2013,08,21,03,40,16.40
2013,08,21,03,41,16.40
2013,08,21,03,42,16.40
2013,08,21,03,43,16.40
2013,08,21,03,44,16.40
2013,08,21,03,45,16.40
2013,08,21,03,46,16.40
2013,08,21,03,47,16.40
2013,08,21,03,48,16.40
2013,08,21,03,49,16.40
2013,08,21,03,50,16.50
2013,08,21,03,51,16.50
2013,08,21,03,52,16.50
2013,08,21,03,53,16.50
2013,08,21,03,54,16.50
2013,08,21,03,55,16.50
2013,08,21,03,56,16.50
2013,08,21,03,57,16.50
2013,08,21,03,58,16.40
2013,08,21,03,59,16.40
2013,08,21,04,00,16.40
2013,08,21,04,01,16.40
2013,08,21,04,02,16.40
2013,08,21,04,03,16.40
2013,08,21,04,04,16.30
2013,08,21,04,05,16.30
2013,08,21,04,06,16.30
2013,08,21,04,07,16.30
2013,08,21,04,08,16.30
2013,08,21,04,09,16.30
2013,08,21,04,10,16.30
2013,08,21,04,11,16.30
2013,08,21,04,12,16.30
2013,08,21,04,13,16.30
2013,08,21,04,14,16.20
2013,08,21,04,15,16.20
2013,08,21,04,16,16.20
2013,08,21,04,17,16.20
2013,08,21,04,18,16.20
2013,08,21,04,19,16.20
2013,08,21,04,20,16.20
2013,08,21,04,21,16.20
2013,08,21,04,22,16.20
2013,08,21,04,23,16.20
2013,08,21,04,24,16.20
2013,08,21,04,25,16.20
2013,08,21,04,26,16.20
2013,08,21,04,27,16.20
2013,08,21,04,28,16.20
2013,08,21,04,29,16.20
2013,08,21,04,30,16.20
2013,08,21,04,31,16.20
2013,08,21,04,32,16.20
2013,08,21,04,33,16.20
2013,08,21,04,34,16.20
2013,08,21,04,35,16.20
2013,08,21,04,36,16.20
2013,08,21,04,37,16.20
2013,08,21,04,38,16.20
2013,08,21,04,39,16.20
2013,08,21,04,40,16.20
2013,08,21,04,41,16.20
2013,08,21,04,42,16.20
2013,08,21,04,43,16.20
2013,08,21,04,44,16.20
2013,08,21,04,45,16.20
2013,08,21,04,46,16.20
2013,08,21,04,47,16.20
2013,08,21,04,48,16.10
2013,08,21,04,49,16.10
2013,08,21,04,50,16.10
2013,08,21,04,51,16.10
2013,08,21,04,52,16.10
2013,08,21,04,53,16.10
2013,08,21,04,54,16.10
2013,08,21,04,55,16.10
2013,08,21,04,56,16.10
2013,08,21,04,57,16.10
2013,08,21,04,58,16.10
2013,08,21,04,59,16.10
2013,08,21,05,00,16.10
2013,08,21,05,01,16.10
2013,08,21,05,02,16.10
2013,08,21,05,03,16.10
2013,08,21,05,04,16.10
2013,08,21,05,05,16.10
2013,08,21,05,06,16.10
2013,08,21,05,07,16.10
2013,08,21,05,08,16.10
2013,08,21,05,09,16.10
2013,08,21,05,10,16.10
2013,08,21,05,11,16.10
2013,08,21,05,12,16.10
2013,08,21,05,13,16.10
2013,08,21,05,14,16.10
2013,08,21,05,15,16.10
2013,08,21,05,16,16.20
2013,08,21,05,17,16.20
2013,08,21,05,18,16.20
2013,08,21,05,19,16.20
2013,08,21,05,20,16.20
2013,08,21,05,21,16.20
2013,08,21,05,22,16.20
2013,08,21,05,23,16.20
2013,08,21,05,24,16.20
2013,08,21,05,25,16.20
2013,08,21,05,26,16.20
2013,08,21,05,27,16.30
2013,08,21,05,28,16.30
2013,08,21,05,29,16.30
2013,08,21,05,30,16.30
2013,08,21,05,31,16.30
2013,08,21,05,32,16.30
2013,08,21,05,33,16.30
2013,08,21,05,34,16.30
2013,08,21,05,35,16.30
2013,08,21,05,36,16.30
2013,08,21,05,37,16.30
2013,08,21,05,38,16.30
2013,08,21,05,39,16.30
2013,08,21,05,40,16.30
2013,08,21,05,41,16.30
2013,08,21,05,42,16.30
2013,08,21,05,43,16.20
2013,08,21,05,44,16.20
2013,08,21,05,45,16.20
2013,08,21,05,46,16.20
2013,08,21,05,47,16.20
2013,08,21,05,48,16.20
2013,08,21,05,49,16.10
2013,08,21,05,50,16.10
2013,08,21,05,51,16.10
2013,08,21,05,52,16.10
2013,08,21,05,53,16.10
2013,08,21,05,54,16.10
2013,08,21,05,55,16.10
2013,08,21,05,56,16.10
2013,08,21,05,57,16.10
2013,08,21,05,58,16.10
2013,08,21,05,59,16.10
2013,08,21,06,00,16.10
2013,08,21,06,01,16.10
2013,08,21,06,02,16.10
2013,08,21,06,03,16.10
2013,08,21,06,04,16.10
2013,08,21,06,05,16.10
2013,08,21,06,06,16.10
2013,08,21,06,07,16.10
2013,08,21,06,08,16.10
2013,08,21,06,09,16.10
2013,08,21,06,10,16.10
2013,08,21,06,11,16.10
2013,08,21,06,12,16.10
2013,08,21,06,13,16.10
2013,08,21,06,14,16.10
2013,08,21,06,15,16.10
2013,08,21,06,16,16.10
2013,08,21,06,17,16.10
2013,08,21,06,18,16.10
2013,08,21,06,19,16.10
2013,08,21,06,20,16.10
2013,08,21,06,21,16.10
2013,08,21,06,22,16.10
2013,08,21,06,23,16.00
2013,08,21,06,24,16.00
2013,08,21,06,25,16.00
2013,08,21,06,26,16.00
2013,08,21,06,27,15.90
2013,08,21,06,28,15.90
2013,08,21,06,29,15.90
2013,08,21,06,30,15.90
2013,08,21,06,31,15.90
2013,08,21,06,32,15.90
2013,08,21,06,33,15.90
2013,08,21,06,34,15.90
2013,08,21,06,35,15.90
2013,08,21,06,36,15.90
2013,08,21,06,37,15.90
2013,08,21,06,38,15.90
2013,08,21,06,39,15.90
2013,08,21,06,40,15.90
2013,08,21,06,41,15.90
2013,08,21,06,42,15.90
2013,08,21,06,43,15.90
2013,08,21,06,44,15.90
2013,08,21,06,45,15.90
2013,08,21,06,46,15.90
2013,08,21,06,47,15.90
2013,08,21,06,48,15.90
2013,08,21,06,49,15.90
2013,08,21,06,50,15.90
2013,08,21,06,51,15.90
2013,08,21,06,52,15.90
2013,08,21,06,53,15.90
2013,08,21,06,54,15.80
2013,08,21,06,55,15.80
2013,08,21,06,56,15.80
2013,08,21,06,57,15.80
2013,08,21,06,58,15.80
2013,08,21,06,59,15.80
2013,08,21,07,00,15.80
2013,08,21,07,01,15.80
2013,08,21,07,02,15.90
2013,08,21,07,03,15.90
2013,08,21,07,04,15.90
2013,08,21,07,05,15.90
2013,08,21,07,06,15.90
2013,08,21,07,07,15.90
2013,08,21,07,08,15.90
2013,08,21,07,09,15.90
2013,08,21,07,10,15.90
2013,08,21,07,11,16.00
2013,08,21,07,12,16.00
2013,08,21,07,13,16.00
2013,08,21,07,14,16.10
2013,08,21,07,15,16.10
2013,08,21,07,16,16.10
2013,08,21,07,17,16.20
2013,08,21,07,18,16.20
2013,08,21,07,19,16.20
2013,08,21,07,20,16.30
2013,08,21,07,21,16.30
2013,08,21,07,22,16.30
2013,08,21,07,23,16.40
2013,08,21,07,24,16.40
2013,08,21,07,25,16.50
2013,08,21,07,26,16.50
2013,08,21,07,27,16.60
2013,08,21,07,28,16.60
2013,08,21,07,29,16.70
2013,08,21,07,30,16.70
2013,08,21,07,31,16.80
2013,08,21,07,32,16.80
2013,08,21,07,33,16.90
2013,08,21,07,34,16.90
2013,08,21,07,35,17.00
2013,08,21,07,36,17.00
2013,08,21,07,37,17.10
2013,08,21,07,38,17.10
2013,08,21,07,39,17.20
2013,08,21,07,40,17.20
2013,08,21,07,41,17.20
2013,08,21,07,42,17.20
2013,08,21,07,43,17.20
2013,08,21,07,44,17.20
2013,08,21,07,45,17.30
2013,08,21,07,46,17.30
2013,08,21,07,47,17.30
2013,08,21,07,48,17.20
2013,08,21,07,49,17.20
2013,08,21,07,50,17.20
2013,08,21,07,51,17.20
2013,08,21,07,52,17.20
2013,08,21,07,53,17.20
2013,08,21,07,54,17.20
2013,08,21,07,55,17.20
2013,08,21,07,56,17.20
2013,08,21,07,57,17.10
2013,08,21,07,58,17.10
2013,08,21,07,59,17.10
2013,08,21,08,00,17.10
2013,08,21,08,01,17.10
2013,08,21,08,02,17.10
2013,08,21,08,03,17.10
2013,08,21,08,04,17.10
2013,08,21,08,05,17.10
2013,08,21,08,06,17.10
2013,08,21,08,07,17.10
2013,08,21,08,08,17.20
2013,08,21,08,09,17.20
2013,08,21,08,10,17.30
2013,08,21,08,11,17.30
2013,08,21,08,12,17.40
2013,08,21,08,13,17.40
2013,08,21,08,14,17.50
2013,08,21,08,15,17.60
2013,08,21,08,16,17.60
2013,08,21,08,17,17.70
2013,08,21,08,18,17.70
2013,08,21,08,19,17.70
2013,08,21,08,20,17.80
2013,08,21,08,21,17.80
2013,08,21,08,22,17.90
2013,08,21,08,23,17.90
2013,08,21,08,24,18.00
2013,08,21,08,25,18.00
2013,08,21,08,26,18.10
2013,08,21,08,27,18.10
2013,08,21,08,28,18.10
2013,08,21,08,29,18.10
2013,08,21,08,30,18.20
2013,08,21,08,31,18.20
2013,08,21,08,32,18.30
2013,08,21,08,33,18.30
2013,08,21,08,34,18.40
2013,08,21,08,35,18.40
2013,08,21,08,36,18.40
2013,08,21,08,37,18.40
2013,08,21,08,38,18.40
2013,08,21,08,39,18.40
2013,08,21,08,40,18.30
2013,08,21,08,41,18.30
2013,08,21,08,42,18.30
2013,08,21,08,43,18.20
2013,08,21,08,44,18.20
2013,08,21,08,45,18.20
2013,08,21,08,46,18.20
2013,08,21,08,47,18.30
2013,08,21,08,48,18.30
2013,08,21,08,49,18.40
2013,08,21,08,50,18.40
2013,08,21,08,51,18.50
2013,08,21,08,52,18.50
2013,08,21,08,53,18.50
2013,08,21,08,54,18.60
2013,08,21,08,55,18.60
2013,08,21,08,56,18.70
2013,08,21,08,57,18.70
2013,08,21,08,58,18.70
2013,08,21,08,59,18.70
2013,08,21,09,00,18.70
2013,08,21,09,01,18.70
2013,08,21,09,02,18.70
2013,08,21,09,03,18.70
2013,08,21,09,04,18.70
2013,08,21,09,05,18.60
2013,08,21,09,06,18.60
2013,08,21,09,07,18.60
2013,08,21,09,08,18.60
2013,08,21,09,09,18.60
2013,08,21,09,10,18.70
2013,08,21,09,11,18.70
2013,08,21,09,12,18.80
2013,08,21,09,13,18.80
2013,08,21,09,14,18.90
2013,08,21,09,15,18.90
2013,08,21,09,16,18.90
2013,08,21,09,17,18.90
2013,08,21,09,18,18.90
2013,08,21,09,19,19.00
2013,08,21,09,20,19.00
2013,08,21,09,21,19.00
2013,08,21,09,22,19.00
2013,08,21,09,23,19.00
2013,08,21,09,24,19.10
2013,08,21,09,25,19.10
2013,08,21,09,26,19.10
2013,08,21,09,27,19.10
2013,08,21,09,28,19.20
2013,08,21,09,29,19.20
2013,08,21,09,30,19.30
2013,08,21,09,31,19.30
2013,08,21,09,32,19.30
2013,08,21,09,33,19.30
2013,08,21,09,34,19.30
2013,08,21,09,35,19.30
2013,08,21,09,36,19.40
2013,08,21,09,37,19.40
2013,08,21,09,38,19.40
2013,08,21,09,39,19.40
2013,08,21,09,40,19.40
2013,08,21,09,41,19.40
2013,08,21,09,42,19.40
2013,08,21,09,43,19.40
2013,08,21,09,44,19.50
2013,08,21,09,45,19.50
2013,08,21,09,46,19.50
2013,08,21,09,47,19.50
2013,08,21,09,48,19.50
2013,08,21,09,49,19.50
2013,08,21,09,50,19.50
2013,08,21,09,51,19.40
2013,08,21,09,52,19.40
2013,08,21,09,53,19.40
2013,08,21,09,54,19.30
2013,08,21,09,55,19.40
2013,08,21,09,56,19.40
2013,08,21,09,57,19.40
2013,08,21,09,58,19.50
2013,08,21,09,59,19.50
2013,08,21,10,00,19.50
2013,08,21,10,01,19.60
2013,08,21,10,02,19.70
2013,08,21,10,03,19.70
2013,08,21,10,04,19.80
2013,08,21,10,05,19.80
2013,08,21,10,06,19.80
2013,08,21,10,07,19.90
2013,08,21,10,08,19.90
2013,08,21,10,09,20.00
2013,08,21,10,10,20.00
2013,08,21,10,11,20.10
2013,08,21,10,12,20.10
2013,08,21,10,13,20.20
2013,08,21,10,14,20.20
2013,08,21,10,15,20.30
2013,08,21,10,16,20.30
2013,08,21,10,17,20.30
2013,08,21,10,18,20.30
2013,08,21,10,19,20.40
2013,08,21,10,20,20.50
2013,08,21,10,21,20.50
2013,08,21,10,22,20.60
2013,08,21,10,23,20.60
2013,08,21,10,24,20.60
2013,08,21,10,25,20.60
2013,08,21,10,26,20.70
2013,08,21,10,27,20.70
2013,08,21,10,28,20.70
2013,08,21,10,29,20.70
2013,08,21,10,30,20.70
2013,08,21,10,31,20.60
2013,08,21,10,32,20.60
2013,08,21,10,33,20.60
2013,08,21,10,34,20.60
2013,08,21,10,35,20.50
2013,08,21,10,36,20.50
2013,08,21,10,37,20.50
2013,08,21,10,38,20.50
2013,08,21,10,39,20.50
2013,08,21,10,40,20.60
2013,08,21,10,41,20.60
2013,08,21,10,42,20.70
2013,08,21,10,43,20.70
2013,08,21,10,44,20.70
2013,08,21,10,45,20.70
2013,08,21,10,46,20.80
2013,08,21,10,47,20.70
2013,08,21,10,48,20.80
2013,08,21,10,49,20.80
2013,08,21,10,50,20.80
2013,08,21,10,51,20.80
2013,08,21,10,52,20.80
2013,08,21,10,53,20.80
2013,08,21,10,54,20.80
2013,08,21,10,55,20.80
2013,08,21,10,56,20.80
2013,08,21,10,57,20.80
2013,08,21,10,58,20.90
2013,08,21,10,59,20.90
2013,08,21,11,00,20.90
2013,08,21,11,01,21.00
2013,08,21,11,02,21.00
2013,08,21,11,03,21.10
2013,08,21,11,04,21.10
2013,08,21,11,05,21.10
2013,08,21,11,06,21.10
2013,08,21,11,07,21.10
2013,08,21,11,08,21.20
2013,08,21,11,09,21.20
2013,08,21,11,10,21.30
2013,08,21,11,11,21.30
2013,08,21,11,12,21.20
2013,08,21,11,13,21.20
2013,08,21,11,14,21.10
2013,08,21,11,15,21.10
2013,08,21,11,16,21.00
2013,08,21,11,17,21.00
2013,08,21,11,18,21.10
2013,08,21,11,19,21.10
2013,08,21,11,20,21.10
2013,08,21,11,21,21.00
2013,08,21,11,22,20.90
2013,08,21,11,23,21.00
2013,08,21,11,24,21.00
2013,08,21,11,25,21.10
2013,08,21,11,26,21.20
2013,08,21,11,27,21.20
2013,08,21,11,28,21.20
2013,08,21,11,29,21.20
2013,08,21,11,30,21.20
2013,08,21,11,31,21.20
2013,08,21,11,32,21.20
2013,08,21,11,33,21.30
2013,08,21,11,34,21.30
2013,08,21,11,35,21.40
2013,08,21,11,36,21.40
2013,08,21,11,37,21.40
2013,08,21,11,38,21.50
2013,08,21,11,39,21.50
2013,08,21,11,40,21.50
2013,08,21,11,41,21.60
2013,08,21,11,42,21.50
2013,08,21,11,43,21.40
2013,08,21,11,44,21.30
2013,08,21,11,45,21.20
2013,08,21,11,46,21.20
2013,08,21,11,47,21.10
2013,08,21,11,48,21.10
2013,08,21,11,49,21.00
2013,08,21,11,50,20.90
2013,08,21,11,51,20.80
2013,08,21,11,52,20.70
2013,08,21,11,53,20.70
2013,08,21,11,54,20.60
2013,08,21,11,55,20.60
2013,08,21,11,56,20.70
2013,08,21,11,57,20.80
2013,08,21,11,58,20.90
2013,08,21,11,59,21.10
2013,08,21,12,00,21.30
2013,08,21,12,01,21.40
2013,08,21,12,02,21.50
2013,08,21,12,03,21.50
2013,08,21,12,04,21.60
2013,08,21,12,05,21.60
2013,08,21,12,06,21.60
2013,08,21,12,07,21.50
2013,08,21,12,08,21.50
2013,08,21,12,09,21.50
2013,08,21,12,10,21.40
2013,08,21,12,11,21.40
2013,08,21,12,12,21.40
2013,08,21,12,13,21.50
2013,08,21,12,14,21.60
2013,08,21,12,15,21.60
2013,08,21,12,16,21.60
2013,08,21,12,17,21.60
2013,08,21,12,18,21.70
2013,08,21,12,19,21.80
2013,08,21,12,20,21.90
2013,08,21,12,21,22.00
2013,08,21,12,22,22.10
2013,08,21,12,23,22.10
2013,08,21,12,24,22.20
2013,08,21,12,25,22.30
2013,08,21,12,26,22.20
2013,08,21,12,27,22.20
2013,08,21,12,28,22.20
2013,08,21,12,29,22.20
2013,08,21,12,30,22.20
2013,08,21,12,31,22.20
2013,08,21,12,32,22.20
2013,08,21,12,33,22.20
2013,08,21,12,34,22.20
2013,08,21,12,35,22.30
2013,08,21,12,36,22.30
2013,08,21,12,37,22.30
2013,08,21,12,38,22.40
2013,08,21,12,39,22.40
2013,08,21,12,40,22.40
2013,08,21,12,41,22.50
2013,08,21,12,42,22.50
2013,08,21,12,43,22.50
2013,08,21,12,44,22.50
2013,08,21,12,45,22.60
2013,08,21,12,46,22.60
2013,08,21,12,47,22.60
2013,08,21,12,48,22.70
2013,08,21,12,49,22.70
2013,08,21,12,50,22.90
2013,08,21,12,51,22.90
2013,08,21,12,52,22.90
2013,08,21,12,53,22.90
2013,08,21,12,54,23.00
2013,08,21,12,55,23.00
2013,08,21,12,56,23.10
2013,08,21,12,57,23.20
2013,08,21,12,58,23.20
2013,08,21,12,59,23.30
2013,08,21,13,00,23.30
2013,08,21,13,01,23.30
2013,08,21,13,02,23.30
2013,08,21,13,03,23.30
2013,08,21,13,04,23.30
2013,08,21,13,05,23.30
2013,08,21,13,06,23.20
2013,08,21,13,07,23.20
2013,08,21,13,08,23.20
2013,08,21,13,09,23.10
2013,08,21,13,10,23.10
2013,08,21,13,11,23.00
2013,08,21,13,12,23.00
2013,08,21,13,13,23.00
2013,08,21,13,14,22.90
2013,08,21,13,15,22.90
2013,08,21,13,16,22.90
2013,08,21,13,17,22.80
2013,08,21,13,18,22.80
2013,08,21,13,19,22.80
2013,08,21,13,20,22.80
2013,08,21,13,21,22.80
2013,08,21,13,22,22.90
2013,08,21,13,23,23.00
2013,08,21,13,24,23.10
2013,08,21,13,25,23.10
2013,08,21,13,26,23.20
2013,08,21,13,27,23.30
2013,08,21,13,28,23.40
2013,08,21,13,29,23.40
2013,08,21,13,30,23.40
2013,08,21,13,31,23.40
2013,08,21,13,32,23.40
2013,08,21,13,33,23.50
2013,08,21,13,34,23.60
2013,08,21,13,35,23.60
2013,08,21,13,36,23.70
2013,08,21,13,37,23.80
2013,08,21,13,38,23.80
2013,08,21,13,39,23.80
2013,08,21,13,40,23.80
2013,08,21,13,41,23.70
2013,08,21,13,42,23.70
2013,08,21,13,43,23.70
2013,08,21,13,44,23.70
2013,08,21,13,45,23.60
2013,08,21,13,46,23.60
2013,08,21,13,47,23.60
2013,08,21,13,48,23.60
2013,08,21,13,49,23.60
2013,08,21,13,50,23.60
2013,08,21,13,51,23.60
2013,08,21,13,52,23.60
2013,08,21,13,53,23.50
2013,08,21,13,54,23.40
2013,08,21,13,55,23.30
2013,08,21,13,56,23.30
2013,08,21,13,57,23.30
2013,08,21,13,58,23.30
2013,08,21,13,59,23.30
2013,08,21,14,00,23.30
2013,08,21,14,01,23.30
2013,08,21,14,02,23.30
2013,08,21,14,03,23.30
2013,08,21,14,04,23.40
2013,08,21,14,05,23.40
2013,08,21,14,06,23.40
2013,08,21,14,07,23.50
2013,08,21,14,08,23.50
2013,08,21,14,09,23.40
2013,08,21,14,10,23.40
2013,08,21,14,11,23.40
2013,08,21,14,12,23.30
2013,08,21,14,13,23.30
2013,08,21,14,14,23.30
2013,08,21,14,15,23.30
2013,08,21,14,16,23.40
2013,08,21,14,17,23.40
2013,08,21,14,18,23.40
2013,08,21,14,19,23.40
2013,08,21,14,20,23.50
2013,08,21,14,21,23.50
2013,08,21,14,22,23.60
2013,08,21,14,23,23.70
2013,08,21,14,24,23.80
2013,08,21,14,25,23.80
2013,08,21,14,26,23.80
2013,08,21,14,27,23.80
2013,08,21,14,28,23.70
2013,08,21,14,29,23.50
2013,08,21,14,30,23.40
2013,08,21,14,31,23.30
2013,08,21,14,32,23.30
2013,08,21,14,33,23.30
2013,08,21,14,34,23.30
2013,08,21,14,35,23.30
2013,08,21,14,36,23.30
2013,08,21,14,37,23.30
2013,08,21,14,38,23.30
2013,08,21,14,39,23.40
2013,08,21,14,40,23.40
2013,08,21,14,41,23.40
2013,08,21,14,42,23.40
2013,08,21,14,43,23.40
2013,08,21,14,44,23.40
2013,08,21,14,45,23.40
2013,08,21,14,46,23.40
2013,08,21,14,47,23.40
2013,08,21,14,48,23.50
2013,08,21,14,49,23.50
2013,08,21,14,50,23.60
2013,08,21,14,51,23.70
2013,08,21,14,52,23.80
2013,08,21,14,53,23.90
2013,08,21,14,54,24.00
2013,08,21,14,55,24.00
2013,08,21,14,56,24.10
2013,08,21,14,57,24.10
2013,08,21,14,58,24.10
2013,08,21,14,59,24.20
2013,08,21,15,00,24.20
2013,08,21,15,01,24.20
2013,08,21,15,02,24.20
2013,08,21,15,03,24.20
2013,08,21,15,04,24.20
2013,08,21,15,05,24.20
2013,08,21,15,06,24.20
2013,08,21,15,07,24.20
2013,08,21,15,08,24.30
2013,08,21,15,09,24.30
2013,08,21,15,10,24.30
2013,08,21,15,11,24.20
2013,08,21,15,12,24.20
2013,08,21,15,13,24.20
2013,08,21,15,14,24.20
2013,08,21,15,15,24.10
2013,08,21,15,16,24.00
2013,08,21,15,17,24.00
2013,08,21,15,18,23.90
2013,08,21,15,19,23.80
2013,08,21,15,20,23.80
2013,08,21,15,21,23.80
2013,08,21,15,22,23.80
2013,08,21,15,23,23.80
2013,08,21,15,24,23.80
2013,08,21,15,25,23.80
2013,08,21,15,26,23.80
2013,08,21,15,27,23.90
2013,08,21,15,28,23.90
2013,08,21,15,29,24.00
2013,08,21,15,30,24.10
2013,08,21,15,31,24.10
2013,08,21,15,32,24.10
2013,08,21,15,33,24.20
2013,08,21,15,34,24.20
2013,08,21,15,35,24.30
2013,08,21,15,36,24.30
2013,08,21,15,37,24.40
2013,08,21,15,38,24.40
2013,08,21,15,39,24.50
2013,08,21,15,40,24.60
2013,08,21,15,41,24.70
2013,08,21,15,42,24.70
2013,08,21,15,43,24.80
2013,08,21,15,44,24.80
2013,08,21,15,45,24.70
2013,08,21,15,46,24.70
2013,08,21,15,47,24.70
2013,08,21,15,48,24.60
2013,08,21,15,49,24.60
2013,08,21,15,50,24.60
2013,08,21,15,51,24.60
2013,08,21,15,52,24.60
2013,08,21,15,53,24.70
2013,08,21,15,54,24.70
2013,08,21,15,55,24.70
2013,08,21,15,56,24.70
2013,08,21,15,57,24.80
2013,08,21,15,58,24.80
2013,08,21,15,59,24.80
2013,08,21,16,00,24.80
2013,08,21,16,01,24.80
2013,08,21,16,02,24.80
2013,08,21,16,03,24.90
2013,08,21,16,04,24.90
2013,08,21,16,05,24.90
2013,08,21,16,06,24.90
2013,08,21,16,07,24.80
2013,08,21,16,08,24.80
2013,08,21,16,09,24.80
2013,08,21,16,10,24.80
2013,08,21,16,11,24.80
2013,08,21,16,12,24.80
2013,08,21,16,13,24.80
2013,08,21,16,14,24.80
2013,08,21,16,15,24.80
2013,08,21,16,16,24.80
2013,08,21,16,17,24.80
2013,08,21,16,18,24.80
2013,08,21,16,19,24.80
2013,08,21,16,20,24.80
2013,08,21,16,21,24.80
2013,08,21,16,22,24.80
2013,08,21,16,23,24.80
2013,08,21,16,24,24.70
2013,08,21,16,25,24.70
2013,08,21,16,26,24.70
2013,08,21,16,27,24.80
2013,08,21,16,28,24.70
2013,08,21,16,29,24.80
2013,08,21,16,30,24.80
2013,08,21,16,31,24.80
2013,08,21,16,32,24.80
2013,08,21,16,33,24.90
2013,08,21,16,34,24.90
2013,08,21,16,35,25.00
2013,08,21,16,36,25.00
2013,08,21,16,37,25.10
2013,08,21,16,38,25.10
2013,08,21,16,39,25.20
2013,08,21,16,40,25.20
2013,08,21,16,41,25.20
2013,08,21,16,42,25.20
2013,08,21,16,43,25.20
2013,08,21,16,44,25.10
2013,08,21,16,45,25.10
2013,08,21,16,46,25.00
2013,08,21,16,47,25.00
2013,08,21,16,48,24.90
2013,08,21,16,49,24.90
2013,08,21,16,50,24.90
2013,08,21,16,51,24.90
2013,08,21,16,52,24.80
2013,08,21,16,53,24.80
2013,08,21,16,54,24.90
2013,08,21,16,55,24.90
2013,08,21,16,56,24.80
2013,08,21,16,57,24.80
2013,08,21,16,58,24.80
2013,08,21,16,59,24.80
2013,08,21,17,00,24.80
2013,08,21,17,01,24.80
2013,08,21,17,02,24.90
2013,08,21,17,03,24.90
2013,08,21,17,04,24.90
2013,08,21,17,05,25.00
2013,08,21,17,06,24.90
2013,08,21,17,07,24.90
2013,08,21,17,08,25.00
2013,08,21,17,09,24.90
2013,08,21,17,10,24.90
2013,08,21,17,11,24.90
2013,08,21,17,12,24.90
2013,08,21,17,13,24.90
2013,08,21,17,14,24.90
2013,08,21,17,15,24.90
2013,08,21,17,16,24.90
2013,08,21,17,17,25.00
2013,08,21,17,18,25.00
2013,08,21,17,19,25.10